Mojave, CA

10:18 AM PST on November 22, 2019 (GMT -0800)
Mojave

Weather History for KMHV - June, 2019

Change the Weather History Date:

Monday, June 10, 2019

  Actual Average Record
Temperature  
Mean Temperature 76 °F -  
Max Temperature 93 °F 84 °F 100 °F (1991)
Min Temperature 60 °F 60 °F 47 °F (1976)
Cooling Degree Days 12    
Growing Degree Days 26 (Base 50)    
Moisture  
Dew Point 29 °F    
Average Humidity 17    
Maximum Humidity 31    
Minimum Humidity 8    
Precipitation  
Precipitation 0.00 in - - ()
Sea Level Pressure  
Sea Level Pressure 30.12 in    
Wind  
Wind Speed 7 mph (NW)    
Max Wind Speed 16 mph    
Max Gust Speed 23 mph    
Visibility 10 miles    
Events      
Averages and records for this station are not official NWS values.
T = Trace of Precipitation, MM = Missing Value Source: NWS Daily Summary

Daily Weather History Graph

Daily Weather History Graph

Search for Another Location

Airport or City:

Astronomy

Jun. 10, 2019 Rise Set
Actual Time 5:38 AM PDT 8:06 PM PDT
Civil Twilight 5:08 AM PDT 8:35 PM PDT
Nautical Twilight 4:31 AM PDT 9:12 PM PDT
Astronomical Twilight 3:51 AM PDT 9:52 PM PDT
Moon 1:20 PM PDT (6/10) 1:33 AM PDT (6/10)
Length of Visible Light 15h 27m
Length of Day
14h 28m
First Quarter, 56% of the Moon is Illuminated
Jun 10
First Quarter
Jun 17
Full
Jun 25
Last Quarter
Jul 2
New
Jul 9
First Quarter

Hourly Weather History & Observations

Time (PDT) Temp. Dew Point Humidity Pressure Visibility Wind Dir Wind Speed Gust Speed Precip Events Conditions
12:00 AM 69.8 °F 28.4 °F 21% 30.11 in 10.0 mi NNW 10.4 mph - N/A   Clear
12:20 AM 69.8 °F 28.4 °F 21% 30.11 in 10.0 mi NNW 10.4 mph - N/A   Clear
12:40 AM 69.8 °F 28.4 °F 21% 30.11 in 10.0 mi NNW 9.2 mph - N/A   Clear
1:00 AM 68.0 °F 28.4 °F 23% 30.11 in 10.0 mi NNW 8.1 mph - N/A   Clear
1:20 AM 68.0 °F 28.4 °F 23% 30.11 in 10.0 mi NNW 9.2 mph - N/A   Clear
1:40 AM 68.0 °F 28.4 °F 23% 30.11 in 10.0 mi NNW 9.2 mph - N/A   Clear
2:00 AM 68.0 °F 28.4 °F 23% 30.11 in 10.0 mi NNW 9.2 mph - N/A   Clear
2:20 AM 66.2 °F 28.4 °F 24% 30.11 in 10.0 mi NNW 8.1 mph - N/A   Clear
2:40 AM 66.2 °F 28.4 °F 24% 30.11 in 10.0 mi NNW 10.4 mph - N/A   Clear
3:00 AM 68.0 °F 28.4 °F 23% 30.11 in 10.0 mi NNW 9.2 mph - N/A   Clear
3:20 AM 68.0 °F 28.4 °F 23% 30.11 in 10.0 mi Variable 4.6 mph - N/A   Clear
3:40 AM 69.8 °F 26.6 °F 20% 30.12 in 10.0 mi Calm Calm - N/A   Clear
4:00 AM 69.8 °F 26.6 °F 20% 30.12 in 10.0 mi NW 3.5 mph - N/A   Clear
4:20 AM 66.2 °F 26.6 °F 23% 30.12 in 10.0 mi Calm Calm - N/A   Clear
4:40 AM 66.2 °F 28.4 °F 24% 30.12 in 10.0 mi Calm Calm - N/A   Clear
5:00 AM 64.4 °F 28.4 °F 26% 30.12 in 10.0 mi NW 4.6 mph - N/A   Clear
5:20 AM 60.8 °F 30.2 °F 31% 30.12 in 10.0 mi NW 6.9 mph - N/A   Clear
5:40 AM 60.8 °F 30.2 °F 31% 30.13 in 10.0 mi NW 5.8 mph - N/A   Clear
6:00 AM 60.8 °F 30.2 °F 31% 30.13 in 10.0 mi NNW 5.8 mph - N/A   Clear
6:20 AM 64.4 °F 30.2 °F 28% 30.13 in 10.0 mi NW 4.6 mph - N/A   Clear
6:40 AM 69.8 °F 28.4 °F 21% 30.14 in 10.0 mi NW 4.6 mph - N/A   Clear
7:00 AM 73.4 °F 30.2 °F 20% 30.15 in 10.0 mi NNW 4.6 mph - N/A   Clear
7:20 AM 75.2 °F 35.6 °F 24% 30.15 in 10.0 mi Calm Calm - N/A   Clear
7:40 AM 77.0 °F 26.6 °F 16% 30.16 in 10.0 mi Calm Calm - N/A   Clear
8:20 AM 78.8 °F 24.8 °F 14% 30.17 in 10.0 mi East 3.5 mph - N/A   Clear
8:40 AM 80.6 °F 26.6 °F 14% 30.17 in 10.0 mi ENE 4.6 mph - N/A   Clear
9:00 AM 82.4 °F 24.8 °F 12% 30.17 in 10.0 mi ENE 5.8 mph - N/A   Clear
9:20 AM 84.2 °F 24.8 °F 11% 30.17 in 10.0 mi NE 9.2 mph - N/A   Clear
9:40 AM 84.2 °F 23.0 °F 11% 30.17 in 10.0 mi ENE 9.2 mph - N/A   Clear
10:00 AM 84.2 °F 23.0 °F 11% 30.17 in 10.0 mi NE 10.4 mph - N/A   Clear
10:20 AM 86.0 °F 23.0 °F 10% 30.17 in 10.0 mi East 9.2 mph - N/A   Clear
10:40 AM 86.0 °F 23.0 °F 10% 30.17 in 10.0 mi NE 10.4 mph - N/A   Clear
11:00 AM 87.8 °F 23.0 °F 9% 30.17 in 10.0 mi Variable 4.6 mph 13.8 mph N/A   Clear
11:20 AM 87.8 °F 23.0 °F 9% 30.17 in 10.0 mi ENE 5.8 mph 15.0 mph N/A   Clear
11:40 AM 87.8 °F 23.0 °F 9% 30.16 in 10.0 mi NNE 10.4 mph - N/A   Clear
12:00 PM 87.8 °F 23.0 °F 9% 30.16 in 10.0 mi NNE 6.9 mph - N/A   Clear
12:20 PM 87.8 °F 23.0 °F 9% 30.16 in 10.0 mi Calm Calm 11.5 mph N/A   Clear
12:40 PM 89.6 °F 23.0 °F 9% 30.15 in 10.0 mi East 8.1 mph - N/A   Clear
1:00 PM 89.6 °F 24.8 °F 10% 30.15 in 10.0 mi SSE 8.1 mph - N/A   Clear
1:20 PM 91.4 °F 24.8 °F 9% 30.14 in 10.0 mi Calm Calm - N/A   Clear
1:40 PM 93.2 °F 24.8 °F 9% 30.14 in 10.0 mi NE 6.9 mph - N/A   Clear
2:00 PM 91.4 °F 24.8 °F 9% 30.13 in 10.0 mi NNW 5.8 mph - N/A   Unknown
2:20 PM 93.2 °F 24.8 °F 9% 30.13 in 10.0 mi SSW 8.1 mph - N/A   Clear
2:40 PM 91.4 °F 24.8 °F 9% 30.12 in 10.0 mi Calm Calm - N/A   Clear
3:00 PM 93.2 °F 24.8 °F 9% 30.11 in 10.0 mi SW 9.2 mph - N/A   Clear
3:20 PM 93.2 °F 24.8 °F 9% 30.11 in 10.0 mi SW 5.8 mph - N/A   Clear
3:40 PM 93.2 °F 23.0 °F 8% 30.11 in 10.0 mi WSW 9.2 mph - N/A   Clear
4:00 PM 93.2 °F 24.8 °F 9% 30.10 in 10.0 mi Calm Calm - N/A   Clear
4:20 PM 93.2 °F 23.0 °F 8% 30.10 in 10.0 mi Calm Calm - N/A   Clear
4:40 PM 93.2 °F 23.0 °F 8% 30.09 in 10.0 mi NW 8.1 mph - N/A   Clear
5:00 PM 93.2 °F 24.8 °F 9% 30.09 in 10.0 mi Variable 3.5 mph - N/A   Clear
5:20 PM 93.2 °F 24.8 °F 9% 30.08 in 10.0 mi Calm Calm - N/A   Clear
5:40 PM 93.2 °F 23.0 °F 8% 30.08 in 10.0 mi Calm Calm - N/A   Clear
6:00 PM 93.2 °F 23.0 °F 8% 30.07 in 10.0 mi Calm Calm - N/A   Clear
6:20 PM 93.2 °F 23.0 °F 8% 30.07 in 10.0 mi Calm Calm - N/A   Clear
6:40 PM 93.2 °F 23.0 °F 8% 30.08 in 10.0 mi Calm Calm - N/A   Unknown
7:00 PM 91.4 °F 23.0 °F 8% 30.08 in 10.0 mi Calm Calm - N/A   Unknown
7:20 PM 91.4 °F 33.8 °F 13% 30.08 in 10.0 mi WSW 15.0 mph - N/A   Unknown
7:40 PM 89.6 °F 35.6 °F 15% 30.09 in 10.0 mi SW 16.1 mph 23.0 mph N/A   Clear
8:00 PM 87.8 °F 35.6 °F 16% 30.10 in 10.0 mi SW 12.7 mph 19.6 mph N/A   Clear
8:20 PM 86.0 °F 35.6 °F 17% 30.10 in 10.0 mi SW 12.7 mph - N/A   Clear
8:40 PM 82.4 °F 42.8 °F 25% 30.11 in 10.0 mi West 11.5 mph - N/A   Clear
9:00 PM 82.4 °F 44.6 °F 26% 30.11 in 10.0 mi West 9.2 mph - N/A   Clear
9:20 PM 80.6 °F 44.6 °F 28% 30.11 in 10.0 mi WNW 10.4 mph - N/A   Clear
9:40 PM 80.6 °F 42.8 °F 26% 30.11 in 10.0 mi NW 12.7 mph - N/A   Clear
10:00 PM 80.6 °F 42.8 °F 26% 30.12 in 10.0 mi NW 11.5 mph - N/A   Clear
10:20 PM 80.6 °F 42.8 °F 26% 30.12 in 10.0 mi NW 11.5 mph - N/A   Clear
10:40 PM 80.6 °F 42.8 °F 26% 30.12 in 10.0 mi WNW 11.5 mph - N/A   Clear
11:00 PM 77.0 °F 42.8 °F 29% 30.12 in 10.0 mi South 8.1 mph - N/A   Clear
11:20 PM 77.0 °F 42.8 °F 29% 30.12 in 10.0 mi SSW 5.8 mph - N/A   Clear
11:40 PM 75.2 °F 42.8 °F 31% 30.12 in 10.0 mi SW 5.8 mph - N/A   Clear